Home   Weather   Poitiers   Past weeks

Flag for France Past Weather in Poitiers, Poitou-Charentes, France — Yesterday and Last 2 Weeks

Now
72 °F

Broken clouds.


Feels Like: 72 °F
Forecast: 57 / 72 °F
Wind: 12 mph from Southwest

Location: Poitiers Airport

Current Time: Aug 17, 2017 at 7:43:27 pm

Latest Report: Aug 17, 2017 at 7:00 pm


Visibility: N/A

Pressure: 30.09 "Hg

Humidity: 78%

Dew Point: 64 °F

Location of PoitiersLocation

Past Weather in Poitiers — Graph

°F

Poitiers Temperature Yesterday

Maximum temperature yesterday: 79 °F (at 4:00 pm)
Minimum temperature yesterday: 57 °F (at 3:30 am)
Average temperature yesterday: 68 °F

High & Low Weather Summary for the Past Weeks

 TemperatureHumidityPressure
High88 °F (Aug 14, 4:30 pm)100% (Aug 10, 12:00 am)30.27 "Hg (Aug 10, 12:00 am)
Low50 °F (Aug 6, 6:00 am)24% (Aug 7, 3:30 pm)29.86 "Hg (Aug 8, 3:00 am)
Average66 °F70%30.09 "Hg
* Reported Aug 2 6:00 pm — Aug 17 6:30 pm, Poitiers. Weather by CustomWeather, © 2017

Note: Actual official high and low records may vary slightly from our data, if they occured in-between our weather recording intervals... More about our weather records

Advertising

Poitiers Weather History for the Previous 24 Hours

Scroll right to see more
 ConditionsComfort  
Time TempWeatherWind HumidityBarometerVisibility
6:30 pm
Thu, Aug 17
73 °FMostly cloudy.13 mph69%30.09 "HgN/A
6:00 pm73 °FMostly cloudy.10 mph69%30.09 "HgN/A
5:30 pm73 °FMostly cloudy.12 mph69%30.09 "HgN/A
5:00 pm73 °FMostly cloudy.12 mph69%30.09 "HgN/A
4:30 pm73 °FOvercast.12 mph69%30.09 "HgN/A
4:00 pm73 °FMore clouds than sun.10 mph69%30.09 "HgN/A
3:30 pm73 °FOvercast.13 mph69%30.12 "HgN/A
3:00 pm73 °FOvercast.14 mph74%30.12 "HgN/A
2:30 pm72 °FMostly cloudy.14 mph73%30.12 "HgN/A
2:00 pm72 °FMostly cloudy.12 mph73%30.12 "HgN/A
1:30 pm72 °FMostly cloudy.14 mph73%30.12 "HgN/A
1:00 pm72 °FMostly cloudy.15 mph73%30.12 "HgN/A
12:30 pm73 °FMostly cloudy.15 mph69%30.12 "HgN/A
12:00 pm73 °FMostly cloudy.16 mph69%30.12 "HgN/A
11:30 am73 °FMostly cloudy.14 mph74%30.12 "HgN/A
11:00 am72 °FOvercast.14 mph73%30.12 "HgN/A
10:30 am70 °FMostly cloudy.13 mph78%30.12 "HgN/A
10:00 am70 °FOvercast.13 mph78%30.12 "HgN/A
9:30 am68 °FMostly cloudy.12 mph83%30.12 "HgN/A
9:00 am66 °FMostly cloudy.12 mph83%30.12 "HgN/A
8:30 am64 °FMostly cloudy.10 mph94%30.12 "HgN/A
8:00 am64 °FLow clouds.10 mph94%30.12 "HgN/A
7:30 am64 °FLow clouds.9 mph94%30.09 "HgN/A
7:00 am63 °FLow clouds.9 mph94%30.12 "HgN/A
6:30 am63 °FLow clouds.9 mph94%30.12 "HgN/A
6:00 am63 °FLow clouds.9 mph94%30.12 "HgN/A
5:30 am61 °FLow clouds.8 mph100%30.09 "Hg6 mi
5:00 am61 °FLow clouds.8 mph94%30.12 "HgN/A
4:30 am61 °FLow clouds.6 mph94%30.12 "HgN/A
4:00 am59 °FPassing clouds.5 mph94%30.12 "HgN/A
3:30 am59 °FPassing clouds.5 mph94%30.12 "HgN/A
3:00 am61 °FCool.6 mph94%30.12 "HgN/A
2:00 am59 °FCool.5 mph88%30.15 "HgN/A
1:30 am61 °FCool.5 mph83%30.15 "HgN/A
1:00 am59 °FCool.5 mph88%30.15 "HgN/A
12:30 am61 °FCool.5 mph83%30.15 "HgN/A
12:00 am61 °FCool.6 mph83%30.15 "HgN/A
11:30 pm
Wed, Aug 16
63 °FMild.6 mph77%30.15 "HgN/A
11:00 pm66 °FMild.6 mph68%30.15 "HgN/A
10:30 pm66 °FMild.6 mph68%30.15 "HgN/A
10:00 pm68 °FMild.7 mph60%30.15 "HgN/A
9:30 pm70 °FMild.7 mph57%30.15 "HgN/A
9:00 pm72 °FSunny.8 mph57%30.15 "Hg10 mi
8:30 pm73 °FSunny.10 mph53%30.12 "Hg10 mi
8:00 pm75 °FPassing clouds.12 mph50%30.12 "HgN/A
7:30 pm77 °FWarm.10 mph47%30.12 "HgN/A
7:00 pm77 °FWarm.9 mph47%30.12 "HgN/A
Weather by CustomWeather, © 2017

See weather overviewHow to use our weather pages